deployment,year,month,day,hours,latitude,longitude
unitless,unitless,unitless,unitless,hours,degrees_north,degrees_east
LMG1409,2014,10,28,5.95,-54.4084,-65.28916262
LMG1409,2014,10,29,9.27,-56.6018,-64.14501825
LMG1409,2014,10,30,11.12,-60.0554,-62.2320407
LMG1409,2014,11,1,5.73,-64.7138,-63.22071083
LMG1409,2014,11,3,4.15,-64.8129,-64.17515425
LMG1409,2014,11,16,2.45,-64.9272,-64.16180044
LMG1409,2014,11,19,9.12,-61.4994,-61.45745304
LMG1409,2014,11,20,6.23,-58.3072,-63.22989693
LMG1409,2014,11,21,4.37,-55.0231,-64.90790901
LMG1504,2015,4,8,8.68,-53.9875,-65.94431612
LMG1504,2015,4,9,7.43,-57.7735,-65.00920083
LMG1504,2015,4,10,8.37,-61.0509,-64.81853275
LMG1504,2015,4,11,8.37,-63.4889,-62.66279362
LMG1504,2015,4,12,1.62,-64.8478,-63.88873101
LMG1504,2015,4,14,7.6,-64.4719,-63.03056968
LMG1504,2015,4,15,6.78,-63.9946,-62.80969103
LMG1504,2015,4,16,3.12,-64.0019,-62.7876503
LMG1504,2015,4,17,5.67,-63.9968,-62.74427396
LMG1504,2015,4,18,1.05,-64.852,-63.85569071
LMG1504,2015,4,19,7.27,-64.5757,-62.79796343
LMG1504,2015,4,20,8.47,-61.0596,-58.81686376
LMG1504,2015,4,21,6.65,-59.4538,-57.04426777
LMG1504,2015,4,22,4.38,-60.8065,-56.08344835
LMG1504,2015,4,23,4.92,-61.0681,-56.62829045
LMG1504,2015,4,24,6.78,-60.7977,-56.09542344
LMG1504,2015,4,25,8.38,-63.288,-60.46271023
LMG1504,2015,4,26,1.32,-64.6831,-64.61772712
LMG1504,2015,4,30,6.38,-64.5789,-63.07574137
LMG1504,2015,5,1,4.73,-63.5314,-62.69904
LMG1504,2015,5,2,6.87,-63.6925,-62.78701276
LMG1504,2015,5,3,5.18,-64.6791,-63.16565855
LMG1504,2015,5,7,7.02,-64.6064,-62.88096452
LMG1504,2015,5,8,7.92,-60.9966,-62.99310161
LMG1504,2015,5,9,7.52,-57.5934,-64.14866469
LMG1504,2015,5,10,7.85,-54.3294,-65.44366692
LMG1509,2015,10,23,10.87,-53.9024,-66.11166696
LMG1509,2015,10,24,10.4,-57.3438,-63.74818465
LMG1509,2015,10,25,10.88,-60.5023,-61.99422991
LMG1509,2015,10,26,6.28,-62.4673,-61.11897026
LMG1509,2015,10,27,3.25,-63.0765,-61.44527438
LMG1509,2015,10,28,11.73,-63.2469,-61.50634673
LMG1509,2015,10,29,4.0,-64.8196,-63.64802528
LMG1509,2015,10,31,5.72,-64.8926,-64.08068013
LMG1509,2015,11,1,4.7,-64.9108,-64.12622689
LMG1509,2015,11,2,9.0,-64.893,-64.15093288
LMG1509,2015,11,3,8.15,-64.8609,-64.20851723
LMG1509,2015,11,4,5.2,-64.8602,-64.18612943
LMG1509,2015,11,8,3.8,-64.7778,-63.46184158
LMG1509,2015,11,9,13.92,-62.4773,-62.26848665
LMG1509,2015,11,10,10.78,-59.1432,-63.87794466
LMG1509,2015,11,11,11.78,-55.845,-64.26760631
